Wind_Speed
44 45 46 47 47 48 48 49 49 48 48 48 48 49 50 51 50 50 49 49 50 50 51 50 50 49 49 49 49 49 49 49 49 48 47 48 48 48 48 48 49 49 49
44 46 46 47 47 47 47 48 48 48 48 48 48 49 51 51 51 50 50 50 51 50 51 51 51 51 51 51 50 50 50 50 49 49 49 49 49 50 50 50 50 51 51
43 45 46 47 48 48 48 49 50 49 49 49 50 50 50 50 51 51 51 51 51 51 51 51 51 52 52 52 52 52 52 52 51 51 51 50 51 51 51 51 51 51 51
42 43 44 45 47 47 48 49 50 50 49 49 49 50 50 51 52 52 52 52 51 51 51 52 52 52 52 53 53 54 54 53 53 53 52 52 52 52 52 52 53 52 52
41 42 43 44 45 46 46 47 48 49 49 49 49 50 49 50 51 52 52 52 52 52 52 52 53 53 54 54 54 55 55 55 55 55 54 53 52 52 52 53 53 54 54
39 40 41 42 43 44 44 45 47 48 48 49 50 50 50 50 51 51 52 52 52 52 52 53 53 54 55 55 55 56 56 55 55 55 55 54 53 53 53 54 54 55 55
36 37 38 39 40 41 42 43 45 46 47 48 49 49 50 51 51 52 52 52 53 53 52 53 53 53 54 55 55 56 56 56 56 55 55 55 54 54 55 55 55 55 55
37 37 38 38 39 40 41 43 44 45 46 46 47 49 50 51 51 52 52 53 53 53 53 53 53 53 53 54 55 55 55 55 55 55 55 55 56 56 55 56 56 56 55
37 38 38 38 39 40 41 42 43 44 45 46 47 48 49 50 51 51 53 53 53 53 52 53 53 52 52 53 55 55 56 56 56 56 56 56 56 56 56 56 56 55 55
36 37 39 39 39 39 40 42 43 44 45 46 46 47 48 49 50 52 53 53 53 53 53 52 52 52 52 53 54 54 55 55 56 56 56 56 56 55 55 55 55 56 56
36 37 38 39 40 40 41 42 43 44 45 46 46 47 48 48 49 51 52 53 53 52 52 51 52 53 53 53 52 53 53 53 54 54 55 55 55 55 54 54 55 56 56
36 37 38 39 40 41 41 42 43 43 44 45 46 46 46 46 47 48 50 51 51 51 50 50 50 50 51 51 51 52 52 53 53 53 53 54 54 54 53 53 54 54 54
36 36 37 38 39 40 41 42 43 43 43 44 44 44 44 44 45 46 47 48 49 49 49 49 49 49 49 49 50 50 51 51 51 51 51 52 52 52 53 53 53 53 53
34 35 35 36 38 38 39 40 40 40 41 42 42 42 42 42 43 44 45 45 46 47 48 48 48 48 48 48 48 48 48 49 49 50 50 51 50 51 51 52 52 52 52
33 34 34 35 35 36 37 37 37 38 38 39 40 40 40 40 41 42 43 44 44 45 45 46 47 47 47 46 46 46 47 48 48 49 49 49 49 50 50 51 51 50 50
32 32 32 32 32 33 33 34 34 36 37 37 38 39 39 40 41 42 43 42 42 42 44 45 45 45 46 45 45 46 46 47 47 48 48 48 48 48 48 48 48 49 48
30 30 31 30 30 31 32 32 33 33 34 35 35 36 37 39 40 41 41 41 41 41 41 41 42 42 43 43 44 44 44 44 45 45 45 46 46 46 46 47 47 47 47
31 31 31 31 31 31 31 31 32 32 33 34 34 35 36 37 37 38 38 39 39 39 39 40 40 41 41 42 42 42 42 42 43 43 43 44 45 45 45 45 45 45 45
31 31 31 30 30 31 31 31 32 32 32 33 33 33 34 34 34 34 35 36 36 37 38 38 39 39 39 40 41 41 41 41 41 41 41 42 42 43 43 44 44 45 45
30 30 30 30 30 30 30 30 30 30 30 31 31 32 32 32 33 33 34 35 35 35 36 36 36 36 36 37 38 39 39 39 40 40 40 40 41 42 42 42 43 43 44
30 30 30 30 30 30 30 30 30 30 30 30 30 31 31 32 32 33 33 33 34 34 35 35 35 35 36 36 37 38 37 37 37 37 38 39 40 41 41 41 42 42 42
29 29 29 29 29 29 30 30 30 30 30 30 30 31 31 32 32 33 33 33 33 33 34 34 34 34 34 35 35 36 36 36 37 37 37 38 38 38 39 39 40 40 41
28 29 29 29 29 30 30 30 31 31 31 31 31 31 31 32 32 32 32 32 33 34 34 34 34 34 33 33 33 34 35 35 36 36 36 36 37 37 37 38 39 40 40
28 28 29 30 30 30 31 31 31 31 31 31 31 31 31 31 31 31 32 32 33 34 34 34 34 34 34 34 34 34 34 35 35 35 34 35 35 36 37 38 38 39 40
28 28 28 29 29 30 30 30 30 30 31 31 31 31 31 31 31 32 32 32 33 34 34 34 34 34 34 34 35 35 35 34 35 35 35 35 35 36 37 37 38 39 39
27 27 27 27 28 28 28 28 28 29 29 29 29 29 29 30 30 30 31 31 31 32 32 32 32 33 33 33 33 33 33 34 34 34 35 35 36 37 37 38 38 39 40
Wind_Direction
251 251 250 250 250 251 251 251 251 251 251 251 251 251 251 252 252 253 253 254 254 254 254 255 256 257 258 259 260 260 261 262 263 264 264 264 265 266 266 268 268 269 269
252 251 251 252 251 252 252 252 251 252 252 252 252 252 252 252 252 252 253 253 253 254 254 255 256 257 258 259 260 261 261 263 264 264 265 266 266 265 266 267 269 269 269
253 252 253 253 253 253 253 253 253 253 253 252 252 252 251 251 251 252 253 253 254 254 255 256 256 257 258 259 260 262 262 263 264 265 265 265 265 265 266 267 268 269 269
255 254 254 253 252 252 253 253 253 253 253 251 251 251 252 252 252 252 253 254 255 256 257 258 257 258 258 259 261 262 263 263 264 265 265 266 266 266 266 267 267 268 270
257 254 254 254 253 252 252 252 253 253 252 252 252 252 253 253 252 252 253 254 256 258 259 259 259 259 260 260 261 262 263 263 265 265 265 266 267 266 266 267 268 268 270
258 255 254 254 253 252 253 253 253 253 253 253 253 253 253 253 253 253 254 255 257 258 259 260 260 261 261 262 263 263 263 264 265 266 266 267 267 266 267 268 269 269 270
257 254 253 253 253 252 253 254 254 254 254 254 254 253 253 253 253 254 255 256 258 258 259 261 261 261 262 262 262 262 263 264 265 266 266 267 267 267 268 269 269 269 270
259 257 256 255 254 254 255 255 256 256 257 257 256 256 255 255 255 255 256 257 258 259 260 261 261 261 263 262 261 262 263 264 265 266 267 267 267 268 269 269 269 270 270
261 258 257 256 255 255 256 257 257 257 258 259 259 259 258 257 256 256 256 257 257 258 259 260 261 261 262 263 262 262 262 263 264 265 266 267 268 268 268 268 269 269 269
262 260 258 258 258 257 258 258 259 259 260 261 261 261 260 259 258 258 257 257 258 259 260 261 262 262 263 263 263 264 263 264 265 265 266 267 268 268 268 268 269 269 270
264 261 260 260 259 260 260 261 261 261 262 262 262 262 261 260 260 259 258 258 258 259 260 261 262 262 263 264 264 265 265 266 266 267 266 267 268 268 268 269 269 269 270
266 263 261 261 261 262 262 262 263 263 263 263 263 262 262 261 260 259 258 258 259 259 259 260 262 262 263 264 265 265 266 267 267 267 266 266 267 267 268 268 269 269 269
268 266 265 263 263 263 263 264 264 263 263 262 262 261 262 261 261 260 260 259 259 259 259 260 261 262 262 264 265 265 266 266 266 266 266 266 267 267 267 268 268 269 269
271 270 269 266 264 264 264 264 264 264 262 262 261 260 261 260 260 260 260 260 259 259 260 260 261 262 264 265 266 266 267 267 267 266 266 266 267 267 268 268 269 269 270
274 272 271 269 267 265 265 265 264 263 263 261 259 259 259 260 260 260 261 262 261 260 259 260 261 262 263 265 266 267 268 268 267 267 266 266 266 267 268 268 268 269 269
274 273 273 271 270 268 267 266 265 265 263 261 261 261 260 260 261 261 261 261 260 260 260 261 261 262 262 264 265 266 267 268 267 267 267 267 266 267 267 267 268 269 269
274 273 273 273 272 270 269 268 266 265 264 264 264 263 262 262 261 261 260 261 260 260 261 262 262 262 262 262 263 265 266 266 267 267 267 267 267 267 268 268 269 270 270
272 272 272 273 273 272 270 269 269 268 267 265 265 265 264 263 263 262 261 262 262 262 262 262 262 262 262 262 262 263 264 265 266 267 268 268 267 267 268 269 270 270 271
273 272 271 272 273 272 272 272 272 271 270 268 266 266 266 265 265 264 263 263 262 262 262 262 263 262 262 262 262 263 264 266 266 267 268 268 267 268 269 270 270 270 271
274 273 272 272 273 274 274 274 274 272 272 271 270 269 269 268 267 266 265 264 262 262 262 263 262 262 262 263 263 265 266 267 268 268 268 269 269 269 270 271 272 272 272
274 273 272 273 273 273 274 274 273 273 272 272 272 271 269 268 267 266 266 264 263 262 263 263 263 263 263 264 264 265 266 267 268 269 270 270 271 271 272 272 272 273 273
275 273 273 273 273 273 273 273 272 271 271 272 272 271 269 268 268 267 266 265 264 264 264 264 264 264 264 265 265 265 266 267 268 269 270 271 271 272 272 272 273 274 276
277 274 272 272 273 273 273 273 272 271 271 271 271 271 269 269 269 267 266 265 265 265 265 265 264 264 264 264 265 266 267 269 269 270 271 272 272 272 273 274 275 276 278
279 278 276 274 274 274 274 274 273 272 272 271 271 270 269 269 268 267 267 266 266 266 265 265 265 264 264 265 265 266 268 269 269 270 270 271 273 274 275 276 277 278 279
280 280 278 276 275 275 274 274 273 273 272 271 271 270 269 268 268 268 268 268 267 267 266 265 265 264 264 265 266 267 267 268 269 270 271 272 274 275 277 278 279 280 281
280 280 279 277 276 276 276 276 275 274 273 273 272 271 270 269 268 268 268 268 268 268 266 265 265 264 265 266 267 267 268 268 269 271 272 273 275 277 279 280 281 282 282
Height
5592 5594 5597 5599 5602 5605 5608 5612 5615 5618 5621 5624 5627 5630 5633 5636 5639 5642 5645 5648 5651 5653 5656 5658 5661 5663 5665 5666 5668 5670 5671 5673 5675 5678 5679 5680 5680 5681 5682 5682 5682 5683 5684
5580 5582 5585 5587 5590 5593 5596 5599 5603 5606 5609 5612 5614 5617 5620 5623 5626 5629 5632 5635 5637 5640 5643 5645 5647 5649 5652 5653 5655 5656 5658 5659 5661 5664 5665 5666 5667 5667 5668 5669 5669 5669 5670
5567 5570 5572 5575 5578 5581 5584 5587 5590 5593 5596 5598 5601 5604 5607 5609 5612 5615 5618 5621 5624 5626 5629 5631 5633 5635 5638 5639 5641 5643 5644 5645 5647 5649 5650 5651 5652 5653 5654 5654 5655 5655 5656
5555 5557 5560 5562 5565 5568 5571 5573 5576 5579 5582 5585 5587 5590 5593 5596 5599 5602 5604 5607 5610 5612 5614 5617 5619 5621 5623 5625 5626 5628 5629 5631 5632 5634 5635 5636 5637 5638 5639 5640 5640 5641 5641
5544 5546 5548 5550 5552 5555 5558 5560 5563 5566 5569 5571 5574 5577 5579 5582 5585 5587 5590 5593 5595 5598 5600 5602 5604 5606 5608 5610 5611 5613 5614 5615 5617 5618 5620 5621 5622 5623 5624 5625 5625 5625 5626
5533 5535 5536 5538 5540 5543 5545 5547 5550 5553 5555 5558 5561 5563 5566 5568 5571 5573 5576 5578 5581 5583 5585 5587 5589 5591 5593 5594 5595 5597 5598 5600 5601 5602 5604 5606 5608 5608 5609 5609 5610 5611 5612
5522 5523 5525 5527 5529 5531 5533 5535 5538 5540 5542 5544 5547 5549 5552 5554 5556 5558 5561 5563 5565 5568 5570 5572 5574 5575 5577 5578 5580 5581 5582 5584 5585 5587 5588 5590 5592 5593 5594 5594 5594 5595 5596
5511 5513 5514 5516 5518 5519 5521 5523 5525 5527 5529 5531 5533 5535 5538 5540 5541 5543 5545 5548 5550 5553 5555 5557 5559 5560 5561 5562 5564 5565 5567 5569 5570 5571 5573 5574 5575 5576 5577 5578 5578 5579 5580
5501 5502 5503 5505 5507 5508 5510 5512 5513 5515 5517 5518 5520 5522 5523 5525 5527 5528 5530 5533 5535 5538 5540 5542 5543 5545 5546 5547 5548 5550 5552 5553 5553 5555 5556 5557 5558 5560 5561 5561 5562 5563 5564
5490 5491 5493 5494 5496 5497 5499 5500 5501 5503 5504 5505 5507 5508 5509 5511 5512 5514 5515 5518 5521 5523 5525 5527 5529 5530 5530 5531 5532 5534 5536 5537 5538 5539 5541 5542 5542 5543 5544 5545 5545 5546 5547
5479 5480 5482 5483 5484 5485 5487 5488 5488 5490 5491 5492 5493 5495 5495 5497 5497 5499 5500 5502 5505 5508 5510 5512 5514 5514 5515 5516 5517 5519 5520 5521 5522 5524 5525 5526 5527 5528 5528 5529 5529 5529 5530
5469 5469 5470 5471 5472 5473 5474 5475 5475 5476 5477 5478 5479 5480 5481 5482 5483 5484 5485 5487 5490 5492 5495 5497 5498 5499 5500 5501 5502 5504 5505 5505 5507 5508 5509 5510 5511 5512 5513 5513 5513 5513 5514
5458 5459 5459 5459 5460 5460 5461 5462 5462 5463 5463 5464 5465 5466 5467 5468 5469 5470 5471 5473 5475 5477 5480 5482 5483 5484 5485 5487 5488 5489 5490 5490 5492 5493 5494 5495 5496 5496 5496 5497 5497 5498 5498
5448 5448 5448 5448 5448 5448 5448 5449 5449 5449 5450 5450 5451 5452 5454 5455 5456 5457 5458 5459 5461 5463 5465 5466 5468 5469 5471 5472 5474 5475 5475 5476 5477 5478 5479 5480 5480 5481 5481 5481 5482 5482 5483
5438 5437 5437 5437 5437 5437 5436 5436 5437 5437 5437 5438 5439 5440 5441 5443 5443 5444 5445 5447 5448 5449 5451 5452 5454 5456 5458 5459 5460 5461 5461 5462 5462 5463 5464 5465 5466 5466 5467 5467 5467 5467 5468
5428 5428 5427 5427 5426 5426 5426 5426 5425 5426 5425 5426 5426 5427 5428 5430 5431 5431 5432 5433 5434 5436 5437 5439 5441 5443 5445 5446 5447 5447 5448 5448 5448 5449 5449 5450 5451 5451 5452 5452 5453 5453 5454
5419 5418 5418 5417 5417 5416 5416 5415 5415 5415 5414 5415 5415 5415 5416 5417 5418 5418 5419 5420 5421 5423 5424 5426 5428 5430 5431 5432 5433 5434 5434 5434 5435 5435 5436 5436 5437 5437 5438 5438 5438 5439 5439
5409 5408 5408 5408 5407 5407 5406 5406 5405 5405 5405 5404 5404 5403 5404 5405 5405 5406 5407 5408 5409 5411 5412 5414 5415 5417 5418 5419 5420 5420 5421 5422 5422 5422 5423 5423 5423 5424 5424 5425 5425 5425 5425
5399 5398 5398 5398 5397 5397 5396 5396 5395 5395 5395 5394 5394 5393 5393 5393 5394 5394 5395 5397 5398 5399 5401 5402 5403 5404 5405 5406 5407 5407 5408 5409 5409 5409 5410 5410 5411 5411 5411 5411 5411 5412 5412
5389 5388 5388 5388 5387 5387 5386 5386 5385 5385 5384 5384 5384 5383 5383 5383 5383 5384 5384 5386 5387 5388 5389 5390 5391 5391 5392 5393 5394 5395 5396 5397 5397 5398 5398 5398 5398 5398 5398 5398 5398 5398 5398
5379 5379 5378 5377 5377 5377 5377 5376 5376 5375 5375 5374 5374 5373 5373 5373 5373 5373 5374 5374 5375 5376 5377 5378 5379 5380 5381 5381 5382 5383 5384 5385 5385 5386 5386 5386 5386 5386 5386 5386 5386 5385 5385
5369 5369 5368 5367 5367 5367 5366 5366 5366 5365 5365 5364 5363 5363 5362 5362 5362 5363 5363 5364 5364 5365 5366 5367 5368 5368 5369 5370 5371 5372 5372 5373 5374 5374 5374 5374 5374 5374 5374 5374 5373 5373 5372
5359 5359 5358 5358 5357 5357 5357 5356 5355 5355 5355 5354 5353 5352 5352 5352 5352 5352 5353 5353 5354 5354 5355 5356 5357 5357 5358 5359 5360 5360 5361 5362 5362 5362 5362 5362 5362 5362 5362 5361 5361 5360 5359
5350 5349 5348 5348 5347 5347 5346 5346 5345 5345 5344 5343 5343 5342 5342 5342 5342 5342 5342 5343 5343 5343 5344 5345 5345 5346 5347 5348 5349 5349 5350 5351 5351 5351 5351 5351 5351 5350 5350 5349 5349 5348 5347
5341 5340 5339 5338 5337 5337 5336 5335 5335 5334 5334 5333 5332 5332 5332 5332 5332 5332 5332 5332 5332 5333 5333 5334 5334 5335 5336 5337 5338 5338 5339 5339 5339 5340 5340 5340 5340 5339 5338 5338 5336 5335 5334
5332 5331 5330 5329 5328 5327 5326 5326 5325 5324 5324 5323 5322 5322 5322 5322 5322 5322 5322 5322 5322 5322 5323 5323 5324 5324 5325 5326 5327 5327 5328 5328 5328 5328 5329 5329 5328 5328 5327 5326 5324 5323 5321